Showing default

DODGE 1, 2867

Orbit data source: Space-Track

DODGE 1, 2867 is a payload satellite owned by USN NAVAIR (US) in GEO that was launched on Sat, 01 Jul 1967 UTC via a TITAN IIIC launch vehicle from the Air Force Eastern Test Range (AFETR). Payload-class satellites include a variety of spacecraft equipped with specific instruments for various scientific and technological missions. These include communications satellites like Starlink; space stations such as the ISS; scientific satellites like the Hubble; Earth observation satellites from companies like Planet Labs, Umbra, and HawkEye 360; GPS; miniature CubeSats for education and research; and military/defense satellites.

Loading next visibility...
Identifier
2867, 1967-066F
Orbit
GEO
Last TLE update
18 hours ago
Origin
Manufacturer
APL
Mission
Defense Technology
Bus & Motor
DODGE, Unknown motor
Mass
195 kg wet, 195 kg dry
Launch date (UTC)
1967-07-01 (58 years ago)
Launch vehicle
TITAN IIIC
Launch site
Air Force Eastern Test Range (AFETR)
Object type
Payload
Rocket body
Debris
Shape & HBR
Step Cyl + 2 Rod, 46 m
Radar Cross Section
2.570 m², Large (>1 m²)

Expand to show TLE details & history

TLE from 18 hours ago
0 DODGE 1
1 02867U 67066F   25183.74920576 -.00000060  00000-0  00000-0 0  9994
2 02867   1.7046 111.6499 0052715 172.9388 105.7666  1.09167670129563
Epoch: 2025-07-02T17:58Z
TLE epoch observation values (Epoch: 2025-07-02T17:58:51.377Z)
Latitude
-1.68047°
Longitude
-159.78822°
Altitude
33,521.882 km
Speed
3.158 km/s
True Right ascension
02h 03m 48s
True Declination
-1° 40' 43"
Sunlit
Object was in daylight at epoch
Visualization orbit readout
Latitude
-1.06077°
Longitude
138.71376°
Altitude
33,313.365 km
Speed
3.175 km/s
Apparent Right ascension
21h 41m 46s
Apparent Declination
-7° 41' 50"
Sunlit
Object is in daylight
Visualization observer readout
Local Sidereal Time
23:59:49
Azimuth
221.858° SW
Elevation
32.708°
Doppler factor
1
Orbital elements
Apogee altitude
33,674.842 km
Perigee altitude
33,254.777 km
Semi-major axis
39,842.946 km
Eccentricity
0.00527
Inclination
1.7046°
RAAN
111.6499°
Arg. of periapsis
172.9388°
True anomaly
Unknown
Mean anomaly
105.7666°
Eccentric anomaly
Unknown
Mean motion
0.27291 °/min
Orbital period
1,319.13 mins
BSTAR
0
Loading historical data...
2867 neighbors
Loading maneuver chart data...
Loading SW <> Apogee altitude chart data...
Loading historical data...
Loading historical data...
Loading historical data...
Loading historical data...
Loading historical data...
Loading historical data...
Loading historical data...

DODGE 1 Visibility forecast

Observer location: undefined°, undefined°

Span
Click to sort rows by Start time (UTC) header in descending order
Start Az.
Max El. time (UTC)
Max El. Az.
Max El.
End time (UTC)
End Az.
1440 mins2025-07-03 12:13:11.727Z221.845° SW2025-07-04 04:40:11.727Z194.868° SSW34.726°2025-07-04 12:13:11.727Z177.441° S
|